DW1955 Cutchogue NY US current weather conditions

sailwx.info

Wind from 225 at 6 knots gusting 10

Air temperature 6.7° C

Last reported at 2019-Dec-15 12:03 UTC.
Time now 2019-Dec-15 12:41 UTC

Location: N 41°01' W 072°29'.
View on Google Maps.

See reports from other nearby stations

  
Tides and Currents Weather Stations Pressure Air Temp Water Temp Dewpoint Dewpoint Depression Visibility Wind Speed Wind Dir Waves Ship Positions
date/time (UTC)wind fromknots sea level pressurealtimeterstation pressurevisibilityair tempwater tempwave heightnotes
2019-Dec-15 12:03 225 6 gusting 10 6.7
2019-Dec-15 11:48 256 6 gusting 13 6.7
2019-Dec-15 11:33 258 6 gusting 10 6.7
2019-Dec-15 11:18 222 5 gusting 12 6.7
2019-Dec-15 11:03 255 5 gusting 7 6.7
2019-Dec-15 10:48 251 4 gusting 8 6.1
2019-Dec-15 10:33 250 4 gusting 12 6.7
2019-Dec-15 10:18 263 5 gusting 12 6.7
2019-Dec-15 10:03 251 5 gusting 12 6.7
2019-Dec-15 09:48 269 4 gusting 12 6.7
2019-Dec-15 09:33 255 5 gusting 10 6.7
2019-Dec-15 09:18 264 5 gusting 12 6.1
2019-Dec-15 09:03 257 6 gusting 14 6.7
2019-Dec-15 08:48 242 5 gusting 13 6.7
2019-Dec-15 08:33 249 5 gusting 11 6.7
2019-Dec-15 08:18 229 5 gusting 10 6.7
2019-Dec-15 08:03 255 5 gusting 13 6.7
2019-Dec-15 07:48 258 5 gusting 12 6.7
2019-Dec-15 07:33 224 5 gusting 10 6.7
2019-Dec-15 07:18 249 5 gusting 13 6.7
2019-Dec-15 07:03 220 4 gusting 13 6.7
2019-Dec-15 06:48 272 6 gusting 11 6.7
2019-Dec-15 06:33 265 6 gusting 12 6.7
2019-Dec-15 06:18 250 4 gusting 13 6.1
2019-Dec-15 06:04 259 6 gusting 13 6.7
2019-Dec-15 05:48 251 6 gusting 13 6.7
2019-Dec-15 05:33 257 5 gusting 9 6.7
2019-Dec-15 05:18 218 4 gusting 12 7.2
2019-Dec-15 05:03 209 6 gusting 19 7.2
2019-Dec-15 04:48 222 4 gusting 8 8.3
2019-Dec-15 04:33 245 5 gusting 9 8.9
2019-Dec-15 04:18 221 5 gusting 10 8.9
2019-Dec-15 04:03 201 6 gusting 9 8.9
2019-Dec-15 03:48 216 6 gusting 11 9.4
2019-Dec-15 03:33 215 2 gusting 10 9.4
2019-Dec-15 03:18 192 4 gusting 9 10.0
2019-Dec-15 03:03 192 3 gusting 8 10.0
2019-Dec-15 02:48 158 1 gusting 7 10.0
2019-Dec-15 02:33 167 2 gusting 6 10.0
2019-Dec-15 02:18 226 2 gusting 6 10.0
2019-Dec-15 02:03 211 4 gusting 8 10.6
2019-Dec-15 01:48 181 1 gusting 7 10.6
2019-Dec-15 01:33 198 2 gusting 6 10.0
2019-Dec-15 01:18 200 3 gusting 10 10.0
2019-Dec-15 01:03 210 2 gusting 9 10.6
2019-Dec-15 00:48 155 3 gusting 7 10.6
2019-Dec-15 00:33 221 1 gusting 7 10.6
2019-Dec-15 00:18 190 2 gusting 6 10.6
2019-Dec-15 00:03 210 4 gusting 8 11.1
2019-Dec-14 23:48 210 2 gusting 8 11.1
2019-Dec-14 23:33 203 3 gusting 9 11.1
2019-Dec-14 23:18 182 4 gusting 11 11.7
2019-Dec-14 18:03 144 4 14.4
2019-Dec-14 17:48 115 1 13.9
2019-Dec-14 17:33 114 1 13.9
2019-Dec-14 17:18 117 1 13.3
2019-Dec-14 17:03 105 13.9
2019-Dec-14 16:48 109 13.9
2019-Dec-14 16:33 109 13.9
2019-Dec-14 16:18 184 0 13.9
2019-Dec-14 16:03 212 1 13.9
2019-Dec-14 15:48 154 0 13.3
2019-Dec-14 15:33 092 13.3
2019-Dec-14 15:18 115 1 gusting 7 13.3
2019-Dec-14 15:03 121 0 gusting 6 13.9
2019-Dec-14 14:48 063 0 gusting 5 13.9
2019-Dec-14 14:33 121 0 gusting 5 13.3
2019-Dec-14 14:18 095 1 gusting 6 13.3
2019-Dec-14 14:03 082 0 gusting 5 13.3
2019-Dec-14 13:48 133 2 gusting 6 13.3
2019-Dec-14 13:33 132 2 gusting 6 12.8
2019-Dec-14 13:18 096 2 gusting 6 13.3
2019-Dec-14 13:03 113 5 gusting 9 13.3
2019-Dec-14 12:48 115 4 gusting 9 13.3
2019-Dec-14 12:33 100 3 gusting 11 13.3
2019-Dec-14 12:18 108 6 gusting 11 13.3
2019-Dec-14 12:03 130 4 gusting 11 13.9
2019-Dec-14 11:48 126 6 gusting 12 13.9
2019-Dec-14 11:33 100 6 gusting 14 13.3
2019-Dec-14 11:18 121 5 gusting 13 13.3
2019-Dec-14 10:48 130 5 gusting 11 13.3
2019-Dec-14 10:33 135 6 gusting 15 13.3
2019-Dec-14 10:18 103 6 gusting 13 13.9
2019-Dec-14 10:03 087 6 gusting 13 13.9
2019-Dec-14 09:48 138 5 gusting 15 12.8
2019-Dec-14 09:33 113 7 gusting 14 13.9
2019-Dec-14 09:18 109 6 gusting 18 13.3
2019-Dec-14 09:03 099 6 gusting 15 13.9
2019-Dec-14 08:48 109 5 gusting 17 13.9
2019-Dec-14 08:33 100 9 gusting 19 13.9
2019-Dec-14 08:18 127 8 gusting 17 13.3
2019-Dec-14 08:03 054 8 gusting 18 12.8
2019-Dec-14 07:48 090 7 gusting 15 12.8
2019-Dec-14 07:33 112 7 gusting 21 12.8
2019-Dec-14 07:18 093 4 gusting 19 12.2
2019-Dec-14 07:03 065 6 gusting 16 12.2
2019-Dec-14 06:48 062 3 gusting 13 11.7
2019-Dec-14 06:33 037 4 gusting 14 11.7
2019-Dec-14 06:18 035 2 gusting 9 11.7
2019-Dec-14 06:03 083 6 gusting 15 11.1
2019-Dec-14 05:48 063 7 gusting 17 11.1
2019-Dec-14 05:33 079 7 gusting 12 11.7
2019-Dec-14 05:18 064 4 gusting 14 11.1
2019-Dec-14 05:03 053 3 gusting 11 10.6
2019-Dec-14 04:48 035 2 gusting 7 10.0
2019-Dec-14 04:33 018 2 gusting 7 10.6
2019-Dec-14 04:18 019 2 gusting 7 10.0
2019-Dec-14 04:03 030 3 gusting 7 10.0
2019-Dec-14 03:48 074 4 gusting 9 10.0
2019-Dec-14 03:33 044 2 gusting 8 9.4
2019-Dec-14 03:18 074 2 gusting 7 9.4
2019-Dec-14 03:03 024 1 gusting 6 9.4
2019-Dec-14 02:48 023 3 gusting 9 10.0
2019-Dec-14 02:33 003 3 gusting 6 9.4
2019-Dec-14 02:18 034 2 gusting 6 10.0
2019-Dec-14 02:03 044 2 gusting 6 10.0
2019-Dec-14 01:48 034 3 gusting 8 10.0
2019-Dec-14 01:33 034 4 gusting 9 10.0
2019-Dec-14 01:18 055 3 gusting 5 10.0
2019-Dec-14 01:03 043 1 gusting 5 10.0
2019-Dec-14 00:48 052 1 gusting 6 10.0
2019-Dec-14 00:33 044 9.4
2019-Dec-14 00:18 030 9.4
2019-Dec-14 00:03 032 0 gusting 1 9.4